Weather in Starokorsunskaya

Russia / Krasnodar Krai     45°03′21″N   39°18′36″E
temp.,
°C
wind,
m/s
gust,
m/s
humid.,
%
clouds,
%
prec.,
mm/h
press.,
hPa
HPBL,
m
24 january, sun
sun2400:00+5sse34696 0.0 102454
03:00+4se34660 0.0 102258
06:00+4ese346513 0.0 102169
09:00+4ese346633 0.0 102189
12:00+6e3469100 0.0 1020147
15:00+7e3472100 0.0 1018106
18:00+5ese3473100 0.0 101871
21:00+5se2271100 0.0 101844
25 january, mon
mon2500:00+5sse346999 0.0 101868
03:00+6ssw376589 0.0 1018180
06:00+7s3564100 0.0 1018119
09:00+5sse456690 0.0 1019103
12:00+9se465733 0.0 1018215
15:00+9e466349 0.0 1015149
18:00+7ese576980 0.0 1015120
21:00+7se237090 0.0 101442
26 january, tue
tue2600:00+9ssw82057100 0.0 1014507
03:00+9s71770100 0.0 1016407
06:00+9sw61572100 0.0 1016449
09:00+9ssw61466100 0.0 1016334
12:00+12sse41063100 0.0 1016439
15:00+12ese5868100 0.0 1014172
18:00+10se2278100 0.0 101428
21:00+9se3476100 0.0 101338
27 january, wed
wed2700:00+10se3369100 0.0 101227
03:00+10se4468100 0.0 101172
06:00+10se5863100 0.0 1009128
09:00+10se4667100 0.0 1008109
12:00+12ese346375 0.0 1007125
15:00+13e236261 0.0 1005185
18:00+11e687185 0.0 1005119
21:00+9ese467393 0.0 100494
28 january, thu
thu2800:00+10sse3666100 0.0 100498
03:00+9s71284100 0.1 1005340
06:00+10sse3473100 0.3 100371
09:00+9ese4577100 0.3 1004103
12:00+10sw6980100 0.8 1004818
15:00+8sw61083100 1.5 1004788
18:00+7wsw5887100 1.8 1008741
21:00+6sw5975100 1.9 1009601